Theta_e
329 328 328 328 328 329 330 331 329 327 326 326 325 324 325 324 325 324 324 324 325 323 324 324 325 324 325 324 324 324 324 325 325 327 327 328 328 329 329 328 328 328
328 329 329 327 328 330 330 330 328 327 325 324 324 324 324 324 324 324 323 322 322 321 322 323 323 323 322 323 323 323 323 324 324 327 325 326 329 329 328 328 328 328
327 327 327 328 329 328 328 327 326 326 325 324 323 323 324 323 323 323 323 323 322 322 323 322 322 321 323 325 325 324 323 322 322 324 325 326 328 327 326 325 325 321
328 329 329 329 329 327 326 325 325 325 324 323 322 323 323 324 323 321 321 323 321 322 323 322 320 321 323 325 325 324 324 325 325 325 325 326 325 324 320 319 317 316
329 328 328 328 328 327 326 325 324 323 323 322 322 323 323 322 321 321 321 321 321 320 320 319 321 323 324 324 324 323 324 323 323 323 323 321 321 319 317 315 313 311
328 327 327 326 325 324 323 323 322 322 322 322 320 321 321 321 320 320 320 320 321 321 321 322 323 324 324 323 323 323 322 321 321 321 320 319 317 316 316 313 311 310
325 325 324 324 323 322 321 321 322 322 321 320 320 320 320 319 319 319 320 321 322 322 320 319 319 319 320 321 321 321 321 321 321 321 320 319 316 314 314 312 311 309
322 322 322 322 321 320 319 318 318 320 320 319 318 319 319 319 320 321 321 321 319 317 316 316 317 318 318 319 319 319 319 320 320 319 318 317 315 313 312 312 311 309
321 320 320 319 318 318 318 318 318 318 320 318 317 318 319 320 320 321 319 316 314 313 313 313 314 316 317 318 318 318 317 318 318 317 317 316 313 312 311 311 310 309
320 319 318 318 317 318 318 318 318 318 319 318 318 318 318 320 319 317 316 314 312 311 310 310 311 313 315 317 318 316 317 317 317 317 316 316 314 312 311 311 309 308
317 317 316 316 316 317 317 318 318 318 317 317 318 318 319 318 317 315 313 312 311 310 310 310 310 310 310 311 315 317 316 316 316 316 316 315 314 313 313 311 310 308
316 316 316 316 317 317 317 317 318 318 317 318 318 318 318 316 314 313 311 309 310 311 310 308 307 307 307 309 311 315 316 316 316 316 316 315 314 312 312 312 310 308
316 316 316 316 316 316 317 318 317 317 318 317 318 317 314 312 312 311 311 310 311 310 309 307 305 304 304 305 308 311 316 315 315 315 316 315 314 313 313 312 311 309
316 316 317 317 317 317 317 317 317 317 317 317 317 314 313 312 310 310 311 311 310 309 307 306 303 301 300 301 304 307 312 313 314 314 314 314 314 313 313 313 312 309
316 316 316 317 316 316 316 316 316 316 316 315 314 313 313 312 312 311 310 310 309 307 304 302 300 299 298 298 298 302 307 313 312 312 312 313 313 312 312 313 313 310
315 315 316 316 315 315 316 316 315 315 315 314 313 312 311 312 312 310 308 307 306 305 303 301 299 298 298 297 299 302 306 310 308 307 307 307 308 309 310 310 311 312
314 315 316 315 315 315 316 316 316 315 313 312 310 310 311 311 309 308 307 306 305 303 301 300 298 297 295 294 297 303 306 305 304 304 304 304 304 304 304 307 310 309
314 315 315 315 315 315 315 315 315 313 312 310 310 310 310 310 309 308 307 305 304 301 299 298 296 295 293 294 297 300 303 304 302 301 301 301 301 301 302 303 305 305
315 315 314 314 315 315 315 315 313 312 310 309 309 310 310 309 308 307 306 305 303 300 298 297 295 294 293 294 295 298 299 302 301 300 299 298 299 299 299 300 301 302
314 314 314 314 315 315 314 313 311 310 309 309 310 309 309 309 308 307 306 304 303 300 298 296 294 294 292 293 295 297 298 300 301 299 298 297 297 297 297 297 298 299
313 314 314 314 314 314 312 311 311 310 310 309 309 308 308 307 307 306 306 305 303 300 298 297 295 293 292 293 295 298 298 300 302 300 298 297 296 296 296 296 296 297
313 313 313 314 313 312 311 311 310 310 309 308 307 307 306 306 305 304 303 303 302 299 297 296 295 292 292 293 295 299 300 304 302 300 298 297 297 296 296 296 296 295
313 313 313 313 312 311 311 311 310 308 307 307 306 305 304 304 303 302 302 301 300 298 296 295 295 293 292 294 297 299 300 302 301 300 299 297 297 296 296 296 298 297
312 313 312 311 311 310 310 310 309 308 307 307 305 304 304 303 303 301 301 300 299 298 296 294 294 294 293 295 297 299 301 301 300 298 297 296 295 295 295 295 298 302
312 312 311 311 310 310 310 308 308 307 307 307 306 305 304 302 301 298 297 297 298 298 301 295 294 295 294 294 296 297 301 301 300 298 296 295 294 294 294 295 295 298
312 311 311 310 309 309 309 308 308 308 306 305 304 303 301 299 298 296 295 295 295 295 297 295 294 293 294 294 295 296 298 301 299 296 295 294 294 295 294 294 294 294
Wind_Speed
7 8 9 7 5 6 7 6 8 9 7 6 5 3 4 4 5 5 5 6 5 4 4 4 5 5 5 5 4 4 4 4 4 4 5 5 4 5 5 6 5 4
5 6 7 7 6 5 6 7 9 9 7 5 4 4 4 4 4 7 5 5 4 3 3 5 5 5 5 5 4 5 4 5 5 4 5 5 5 5 7 7 7 7
5 5 5 6 7 8 9 9 9 8 7 5 4 4 4 4 5 5 4 3 4 4 6 5 5 5 5 5 5 4 4 4 5 5 4 4 5 6 7 7 8 10
6 4 3 4 7 9 8 9 8 7 6 6 5 4 3 5 6 4 6 7 6 5 4 5 4 4 5 4 4 4 4 5 6 5 4 5 6 7 9 8 8 8
7 6 4 5 7 8 7 8 8 7 7 6 4 4 6 7 6 6 5 6 5 4 4 4 3 3 2 3 4 4 5 5 5 5 5 6 7 7 7 7 8 9
7 6 6 6 7 8 9 8 7 7 5 8 7 6 7 7 6 6 4 5 5 4 2 2 2 3 3 5 4 4 5 5 6 5 6 7 7 7 6 7 7 8
8 7 8 8 9 9 9 8 6 7 7 5 7 7 6 6 6 4 5 1 1 1 4 6 6 5 5 4 5 5 6 6 6 6 8 7 7 8 8 7 7 8
9 8 8 8 9 8 9 8 9 7 6 7 8 6 7 6 6 2 1 3 6 8 7 6 5 6 5 4 6 5 5 5 5 7 7 7 7 7 7 6 7 8
9 8 8 9 9 7 8 8 7 6 6 7 7 6 6 5 2 1 4 8 9 7 6 5 6 4 4 4 5 6 6 5 5 6 6 6 7 6 6 6 8 8
9 8 9 9 8 7 8 7 6 7 8 8 7 5 3 2 4 7 8 9 8 6 5 4 5 5 5 5 6 5 4 5 5 5 5 6 6 6 6 6 7 8
9 9 9 9 8 7 7 7 5 5 6 7 6 6 2 4 7 8 9 8 6 4 3 4 5 6 6 6 5 3 3 4 3 4 5 6 6 5 5 5 6 7
9 9 9 9 8 8 8 5 5 6 7 5 5 5 5 8 8 7 7 6 3 2 5 6 5 6 5 5 4 2 2 2 2 3 5 6 5 4 4 5 6 7
8 8 8 7 6 7 6 4 5 7 5 4 4 7 9 8 8 8 6 4 2 5 6 6 5 5 5 5 5 4 2 2 2 2 4 5 4 4 4 5 6 6
8 7 7 6 5 6 6 6 6 5 3 3 5 9 9 9 8 7 5 3 5 6 5 5 6 5 5 4 4 3 2 4 3 3 4 5 4 3 3 4 6 5
7 6 5 6 7 8 8 7 6 3 3 6 8 8 8 8 8 7 5 5 5 5 5 5 6 5 3 3 2 3 3 6 7 7 6 4 4 5 4 4 5 5
7 5 5 7 7 8 8 8 7 4 4 7 8 8 7 7 8 6 4 4 5 4 4 5 5 3 4 4 2 0 3 6 7 7 7 7 7 5 4 4 5 5
7 5 7 8 7 7 7 7 6 5 7 7 6 6 8 7 7 6 5 5 5 4 4 5 4 4 6 7 10 13 9 7 7 7 7 8 7 7 7 7 7 7
5 7 9 9 8 7 6 6 7 9 8 6 6 8 8 7 7 6 6 5 5 5 5 4 4 7 9 9 11 14 12 9 8 8 7 7 7 7 7 7 7 7
6 8 8 8 8 7 5 6 9 8 7 5 6 7 8 8 7 7 7 5 5 5 5 4 4 8 8 8 8 12 14 12 8 8 9 8 7 7 7 7 6 6
8 9 8 8 7 6 6 9 9 7 5 5 5 5 7 8 8 7 6 5 5 5 4 4 5 9 8 8 7 11 14 12 10 9 9 9 8 7 7 7 6 6
9 8 8 8 7 7 9 9 9 7 8 6 6 7 7 7 7 6 5 5 4 3 4 5 5 9 9 8 8 13 14 11 8 8 8 8 7 7 7 7 6 6
10 8 7 6 7 9 9 9 8 7 7 7 7 8 8 9 8 7 6 6 4 3 4 5 6 11 9 7 9 12 13 8 7 7 7 7 7 6 6 6 6 7
9 8 7 6 7 8 8 8 8 9 8 7 8 8 9 9 7 7 6 5 4 4 5 5 6 10 9 9 12 14 10 8 8 7 6 6 6 5 5 5 6 7
8 8 6 7 8 9 9 8 9 8 8 8 9 8 9 8 7 7 6 5 5 5 4 5 5 9 11 13 15 14 10 8 8 8 7 6 6 6 6 6 7 13
7 8 8 8 8 7 8 9 9 8 8 8 8 8 8 7 7 7 6 5 4 4 7 7 6 8 12 15 14 13 10 7 7 7 7 5 6 6 6 7 7 9
8 9 8 7 7 7 7 7 7 7 7 8 9 9 9 8 7 7 7 5 4 4 6 5 8 7 10 16 15 14 13 9 7 8 7 6 5 6 7 7 7 8
Wind_Direction
143 143 144 139 133 136 149 148 110 97 96 90 88 77 87 82 73 71 62 54 54 44 22 19 36 36 27 18 13 9 4 351 348 355 350 342 347 347 351 347 341 335
138 135 122 125 145 159 128 103 100 102 100 91 85 78 68 73 59 63 55 52 50 27 25 43 44 35 22 16 8 10 1 356 355 344 347 357 6 13 17 7 15 10
112 107 127 151 147 116 99 94 94 98 102 102 88 73 66 58 57 68 82 71 29 10 45 48 43 29 26 19 10 2 357 345 359 346 355 14 22 36 27 18 25 19
130 139 155 142 112 100 97 96 92 91 93 80 66 49 74 56 45 54 50 54 58 54 48 52 47 36 28 12 6 351 350 9 4 348 15 33 39 43 35 28 26 21
129 124 119 109 97 94 95 93 92 94 92 97 76 45 58 65 60 48 54 56 61 52 41 43 57 63 40 11 356 6 14 14 6 13 36 48 44 42 37 28 22 22
112 110 103 93 89 89 85 88 95 104 98 74 70 60 59 63 62 56 48 53 51 49 13 355 43 47 36 12 11 31 32 19 15 26 40 50 45 40 37 32 26 27
104 97 86 81 84 87 87 80 69 70 79 99 79 61 69 62 59 40 61 64 126 41 50 51 41 33 37 25 37 39 33 22 26 36 51 56 52 45 39 32 31 34
94 89 85 83 82 79 82 80 74 76 93 78 75 65 67 58 48 72 313 12 57 56 49 42 38 36 34 30 41 41 42 32 39 45 52 61 53 49 40 33 31 31
94 90 89 88 87 82 82 83 81 85 90 94 84 68 65 96 156 307 53 71 61 56 45 33 31 14 18 35 49 51 44 39 47 53 57 68 62 54 44 32 34 33
95 91 87 88 87 87 87 87 86 79 85 86 89 84 81 17 58 73 65 65 66 55 45 32 15 11 15 18 64 55 43 48 57 59 65 73 75 61 47 39 37 39
100 98 98 95 96 96 91 81 69 90 96 95 110 124 139 64 61 67 68 61 66 55 53 46 29 21 26 19 30 58 52 62 64 72 74 81 80 66 57 49 48 48
104 104 104 104 104 100 95 96 105 107 108 135 140 129 108 78 74 70 75 70 56 67 63 60 46 33 26 13 12 26 65 59 78 84 91 95 94 89 66 61 62 53
106 107 110 109 108 113 128 128 110 104 120 143 134 111 97 90 85 85 76 87 87 63 61 50 42 33 19 353 342 338 26 57 66 93 109 104 103 94 78 73 73 68
109 113 110 119 125 123 114 103 104 117 128 90 93 104 103 101 96 97 108 119 87 72 55 47 39 32 14 345 331 343 339 44 33 56 83 110 119 110 89 81 86 85
115 109 116 118 114 115 110 106 105 122 120 99 95 98 108 117 118 116 126 104 84 73 57 43 42 25 16 349 330 350 343 47 40 45 42 61 92 91 73 73 94 97
117 122 123 117 118 116 121 134 147 149 99 97 99 101 103 102 106 115 110 100 93 75 64 55 44 22 350 339 332 287 26 58 52 45 43 40 37 29 32 49 72 95
135 136 127 125 122 131 150 153 144 123 112 107 114 113 110 110 109 108 100 84 74 65 54 53 45 15 5 59 68 69 67 61 56 49 41 40 38 36 28 14 32 54
146 135 132 132 143 154 156 142 124 115 112 116 115 115 118 118 111 105 98 88 78 64 53 43 40 9 26 49 73 82 81 74 65 59 49 42 39 36 30 26 27 32
145 136 137 149 156 159 146 120 117 116 122 122 118 122 121 114 112 103 99 95 80 66 52 35 35 9 27 53 77 97 92 85 71 67 62 52 44 41 35 32 28 22
144 145 150 154 157 142 121 120 120 126 129 124 113 99 103 111 109 107 106 100 86 74 61 40 35 357 19 45 81 110 103 91 83 74 71 62 57 50 44 37 28 27
139 142 148 153 146 131 126 125 130 133 127 119 107 98 95 100 105 102 99 94 89 76 59 45 23 7 22 40 81 109 106 100 90 83 75 71 63 56 52 46 35 27
133 144 153 152 143 136 134 138 140 133 119 107 96 88 82 80 73 71 73 79 79 69 61 37 16 14 23 56 97 107 100 98 96 86 81 70 63 57 52 51 45 38
139 149 156 151 140 134 135 135 127 114 108 105 97 93 90 82 80 75 71 75 70 59 59 44 25 7 21 78 107 106 97 97 95 89 77 63 52 47 42 39 45 44
147 152 144 134 129 129 130 123 116 114 117 116 111 105 94 91 89 80 68 63 67 63 55 61 34 13 34 69 96 108 110 101 97 93 80 67 53 37 33 29 28 37
142 137 133 130 128 129 127 124 125 127 128 118 113 105 100 95 87 87 76 58 54 62 57 63 50 31 42 67 77 92 95 94 92 89 78 62 53 35 25 28 19 19
127 126 123 124 126 123 123 128 129 119 111 104 102 103 103 100 97 92 87 75 61 57 58 54 64 48 48 64 70 76 88 92 86 85 83 72 53 47 35 21 19 17